Location: Arborea
(39.7744°N, 8.5819°E)
Time: 10:50:17
(UTC+00:00)

OAO 3 Rocket - Pass Details

Date: 30 May 2022
Orbit: 628 x 681 km, 35.0° (Epoch: 02 July)

Event Time Altitude Azimuth Distance (km) Brightness Sun altitude
Rises 20:10:22 0° 268° (W) 2,995 7.3 -13.7°
Reaches altitude 10° 20:13:18 10° 251° (WSW) 2,089 6.1 -14.1°
Maximum altitude 20:16:44 19° 206° (SSW) 1,571 4.9 -14.6°
Enters shadow 20:18:40 16° 177° (S) 1,755 4.9 -14.8°
